WetterOnline ( http://www.wetteronline.de )

Wetter aktuell Braunschweig

Aktuelles Wetter: Wernigerode (240m)

6-stündlich | Neueste Meldungen
Ortszeit Temperatur Wetter
Mo, 23.07. 2:00 15.1° C wolkenlos
So, 22.07. 20:00 23.0° C bedeckt
So, 22.07. 14:00 25.2° C bedeckt
So, 22.07. 8:00 20.3° C wolkig
So, 22.07. 2:00 19.5° C leichter Regen
Sa, 21.07. 20:00 23.9° C bedeckt
Sa, 21.07. 14:00 26.6° C bedeckt
Sa, 21.07. 8:00 19.5° C wolkig
Ortszeit Temperatur Wetter
Mo, 23.07. 6:00 14.5° C leicht bewölkt
Mo, 23.07. 5:50 14.5° C leicht bewölkt
Mo, 23.07. 5:40 14.6° C wolkig
Mo, 23.07. 5:30 14.9° C bedeckt
Mo, 23.07. 5:20 14.9° C bedeckt
Mo, 23.07. 5:10 14.9° C bedeckt
Mo, 23.07. 5:00 15.3° C bedeckt
Mo, 23.07. 4:30 15.2° C bedeckt
Mo, 23.07. 4:00 14.8° C bewölkt
Mo, 23.07. 3:30 14.3° C fast wolkenlos
Mo, 23.07. 3:00 14.7° C wolkenlos
Ortszeit Relative Feuchte Sichtweite
Mo, 23.07. 2:00 91% 11 km
So, 22.07. 20:00 55% 27 km
So, 22.07. 14:00 46% 35 km
So, 22.07. 8:00 65% 40 km
So, 22.07. 2:00 72% 12 km
Sa, 21.07. 20:00 49% 29 km
Sa, 21.07. 14:00 33% 30 km
Sa, 21.07. 8:00 52% 35 km
Ortszeit Relative Feuchte Sichtweite
Mo, 23.07. 6:00 94% 7 km
Mo, 23.07. 5:50 94% -
Mo, 23.07. 5:40 94% -
Mo, 23.07. 5:30 93% 8 km
Mo, 23.07. 5:20 93% -
Mo, 23.07. 5:10 93% -
Mo, 23.07. 5:00 93% 10 km
Mo, 23.07. 4:30 92% 13 km
Mo, 23.07. 4:00 93% 9 km
Mo, 23.07. 3:30 92% 10 km
Mo, 23.07. 3:00 92% 13 km
Ortszeit Niederschlagsmenge Niederschlagsart
Mo, 23.07. 2:00 0.0 l/m2 in 6 Std. -
So, 22.07. 20:00 2 l/m2 in 12 Std. Regen
So, 22.07. 14:00 0.0 l/m2 in 6 Std. -
So, 22.07. 8:00 0.8 l/m2 in 12 Std. Regen
So, 22.07. 2:00 0.2 l/m2 in 6 Std. Regen
Sa, 21.07. 20:00 0.0 l/m2 in 12 Std. -
Sa, 21.07. 14:00 0.0 l/m2 in 6 Std. -
Sa, 21.07. 8:00 0.0 l/m2 in 12 Std. -
Ortszeit Niederschlagsmenge Niederschlagsart
Mo, 23.07. 6:00 0.0 l/m2 in 1 Std. -
Mo, 23.07. 5:50 keine Meldung -
Mo, 23.07. 5:40 keine Meldung -
Mo, 23.07. 5:30 0.0 l/m2 in 1 Std. -
Mo, 23.07. 5:20 keine Meldung -
Mo, 23.07. 5:10 keine Meldung -
Mo, 23.07. 5:00 0.0 l/m2 in 1 Std. -
Mo, 23.07. 4:30 0.0 l/m2 in 1 Std. -
Mo, 23.07. 4:00 0.0 l/m2 in 1 Std. -
Mo, 23.07. 3:30 0.0 l/m2 in 1 Std. -
Mo, 23.07. 3:00 0.0 l/m2 in 1 Std. -
Ortszeit Stärke Spitze Richtung
km/h Bft. km/h Grad Sektor
Mo, 23.07. 2:00 4 1 14 160° S
So, 22.07. 20:00 4 1 47 300° NW
So, 22.07. 14:00 9 2 26 280° W
So, 22.07. 8:00 13 3 26 190° S
So, 22.07. 2:00 13 3 22 180° S
Sa, 21.07. 20:00 14 3 40 180° S
Sa, 21.07. 14:00 15 3 26 120° SO
Sa, 21.07. 8:00 7 2 18 130° SO
Ortszeit Stärke Spitze Richtung
km/h Bft. km/h Grad Sektor
Mo, 23.07. 6:00 2 1 7 170° S
Mo, 23.07. 5:50 2 1 - 170° S
Mo, 23.07. 5:40 4 1 - 150° SO
Mo, 23.07. 5:30 0 0 4 - -
Mo, 23.07. 5:20 2 1 - 130° SO
Mo, 23.07. 5:10 4 1 - 150° SO
Mo, 23.07. 5:00 2 1 6 160° S
Mo, 23.07. 4:30 4 1 4 160° S
Mo, 23.07. 4:00 4 1 7 150° SO
Mo, 23.07. 3:30 4 1 7 150° SO
Mo, 23.07. 3:00 4 1 7 170° S
Ortszeit Untergrenze Bedeckung Gattung
total tief tief mittel hoch
Mo, 23.07. 2:00 - 0/8 0/8 - - -
So, 22.07. 20:00 2700 m 8/8 8/8 - - -
So, 22.07. 14:00 1800 m 8/8 8/8 - - -
So, 22.07. 8:00 1800 m 8/8 2/8 - - -
So, 22.07. 2:00 1800 m 7/8 8/8 - - -
Sa, 21.07. 20:00 3000 m 8/8 8/8 - - -
Sa, 21.07. 14:00 5100 m 8/8 8/8 - - -
Sa, 21.07. 8:00 6600 m 8/8 3/8 - - -
Ortszeit Bedeckungsgrad in Achtel und Wolkenuntergrenze
Mo, 23.07. 6:00 3(2700m)
Mo, 23.07. 5:50 3(2700m)
Mo, 23.07. 5:40 6(2700m)
Mo, 23.07. 5:30 8(2400m)
Mo, 23.07. 5:20 8(2400m)
Mo, 23.07. 5:10 8(2400m)
Mo, 23.07. 5:00 8(2400m)
Mo, 23.07. 4:30 8(2400m)
Mo, 23.07. 4:00 7(2400m)
Mo, 23.07. 3:30 3(2700m)
Mo, 23.07. 3:00 keine Wolken
Ortszeit Luftdruck NN (hPa) Tendenz (hPa in 3 Std.)
Mo, 23.07. 2:00 1016 + 0,7
So, 22.07. 20:00 1013 - 0,5
So, 22.07. 14:00 1013 + 0,1
So, 22.07. 8:00 1013 + 0,4
So, 22.07. 2:00 1012 + 0,7
Sa, 21.07. 20:00 1011 - 0,3
Sa, 21.07. 14:00 1011 - 0,3
Sa, 21.07. 8:00 1011 - 0,6
Ortszeit Luftdruck NN (hPa) Tendenz (hPa in 3 Std.)
Mo, 23.07. 6:00 1017 + 0,5
Mo, 23.07. 5:50 1017 keine Meldung
Mo, 23.07. 5:40 1017 keine Meldung
Mo, 23.07. 5:30 1017 + 0,4
Mo, 23.07. 5:20 1017 keine Meldung
Mo, 23.07. 5:10 1016 keine Meldung
Mo, 23.07. 5:00 1016 + 0,3
Mo, 23.07. 4:30 1016 + 0,3
Mo, 23.07. 4:00 1016 + 0,3
Mo, 23.07. 3:30 1016 + 0,4
Mo, 23.07. 3:00 1016 + 0,4
Ortszeit Schneehöhe (cm)
Mo, 23.07. 2:00 -
So, 22.07. 20:00 -
So, 22.07. 14:00 -
So, 22.07. 8:00 -
So, 22.07. 2:00 -
Sa, 21.07. 20:00 -
Sa, 21.07. 14:00 -
Sa, 21.07. 8:00 -
Ortszeit Schneehöhe (cm)
Mo, 23.07. 6:00 -
Mo, 23.07. 5:50 -
Mo, 23.07. 5:40 -
Mo, 23.07. 5:30 -
Mo, 23.07. 5:20 -
Mo, 23.07. 5:10 -
Mo, 23.07. 5:00 -
Mo, 23.07. 4:30 -
Mo, 23.07. 4:00 -
Mo, 23.07. 3:30 -
Mo, 23.07. 3:00 -
Link zu dieser Seite / Seite empfehlen

Das Wetter in ...